This is the latest recevied weather packets stored in our database for station/object K7SKM. If no packets are shown the sender has not sent any weather packets the latest 10 day(s).
| Time | Temp. | Humidity | Pressure | Rain* | Wind** | Luminosity | Snow |
|---|---|---|---|---|---|---|---|
| 1777688542 | 20.56° C | 45% | 1018.7 hPa | 0 mm | - | 31 W/m² | - |
| 1777688239 | 21.11° C | 47% | 1018.8 hPa | 0 mm | - | 42 W/m² | - |
| 1777687937 | 21.11° C | 49% | 1018.7 hPa | 0 mm | - | 44 W/m² | - |
| 1777687634 | 21.11° C | 47% | 1018.4 hPa | 0 mm | - | 44 W/m² | - |
| 1777687330 | 21.11° C | 44% | 1018.5 hPa | 0 mm | - | 51 W/m² | - |
| 1777687029 | 21.67° C | 43% | 1018.8 hPa | 0 mm | - | 46 W/m² | - |
| 1777686724 | 21.67° C | 43% | 1018.7 hPa | 0 mm | - | 38 W/m² | - |
| 1777686422 | 21.67° C | 43% | 1018.9 hPa | 0 mm | - | 46 W/m² | - |
| 1777686119 | 21.67° C | 42% | 1018.7 hPa | 0 mm | - | 48 W/m² | - |
| 1777685815 | 21.67° C | 42% | 1018.7 hPa | 0 mm | - | 65 W/m² | - |
| 1777685510 | 21.67° C | 42% | 1018.6 hPa | 0 mm | - | 80 W/m² | - |
| 1777685208 | 22.22° C | 43% | 1018.8 hPa | 0 mm | - | 79 W/m² | - |
| 1777684906 | 22.22° C | 43% | 1018.6 hPa | 0 mm | - | 91 W/m² | - |
| 1777684602 | 22.22° C | 43% | 1018.8 hPa | 0 mm | - | 101 W/m² | - |
| 1777684298 | 22.22° C | 44% | 1018.8 hPa | 0 mm | - | 102 W/m² | - |
| 1777683996 | 22.22° C | 45% | 1018.8 hPa | 0 mm | - | 128 W/m² | - |
| 1777683692 | 22.22° C | 44% | 1018.7 hPa | 0 mm | - | 292 W/m² | - |
| 1777683390 | 22.22° C | 45% | 1018.6 hPa | 0 mm | - | 188 W/m² | - |
| 1777683087 | 22.22° C | 44% | 1018.9 hPa | 0 mm | - | 80 W/m² | - |
| 1777682783 | 22.78° C | 45% | 1018.7 hPa | 0 mm | - | 98 W/m² | - |
| 1777682480 | 22.78° C | 44% | 1019 hPa | 0 mm | - | 107 W/m² | - |
| 1777682178 | 22.22° C | 45% | 1018.8 hPa | 0 mm | - | 107 W/m² | - |
| 1777681875 | 22.78° C | 45% | 1018.8 hPa | 0 mm | - | 122 W/m² | - |
| 1777681570 | 22.22° C | 44% | 1018.8 hPa | 0 mm | - | 174 W/m² | - |
| 1777681268 | 22.78° C | 46% | 1018.6 hPa | 0 mm | - | 113 W/m² | - |
* Rain latest hour (hover to see other rain measurements)
** Current wind speed in m/s (hover to see current wind gust speed)